Tracking 20628 objects as of 5-Apr-2020
HD Live streaming from Space Station
objects crossing your sky now

PEGASUS DEB

Track PEGASUS DEB now!
10-day predictions


NORAD ID: 24996
Int'l Code: 1994-029ADD
Perigee: 577.8 km
Apogee: 1,067.8 km
Inclination: 82.2 °
Period: 101.2 minutes
Semi major axis: 7193 km
RCS: 0.0119 m2 (small)
Launch date: May 19, 1994
Source: United States (US)
Launch site: AIR FORCE WESTERN TEST RANGE (AFWTR)

Note: This is SATELLITE DEBRIS
aabbcc
Your satellite tracking list
Your tracking list is empty




NASA's NSSDC Master Catalog

Two Line Element Set (TLE):
1 24996U 94029ADD 20095.23793025 +.00001272 +00000-0 +30468-3 0  9997
2 24996 082.1911 274.7598 0340587 112.5357 251.2246 14.22870750172140
Source of the keplerian elements: AFSPC